[[{"header":{"parameterUnit":"m.s-1","parameterCategory":2,"la1":30.2991,"la2":30.254,"lo1":-89.0895,"lo2":-89.0444,"dy":0.0017,"dx":0.0017,"nx":28,"ny":28,"refTime":"2025-07-22T21:00:00:Z","depth":"0","parameterNumber":2,"parameterNumberName":"U-component_of_CURRENTS"},"data":[0,0,0,0,0,0,0,0,0,0,0,0,0,0,0,0,0,0,0,0,0,0,0,0,0,0,0,0,0,0,0,0,0,0,0,0,0,0,0,0,0,0,0,0,0,0,0,0,0,0,0,0,0,0,0,0,0,0,0.4713,0.4714,0,0.4754,0.4753,0.4753,0.475,0.475,0.475,0.4751,0.466,0.4657,0.4655,0,0,0,0,0,0,0,0,0,0,0,0,0,0.4553,0.4556,0.4713,0.4714,0.4716,0.4754,0.4753,0.4753,0.475,0.475,0.475,0.4751,0.4661,0.4658,0.4654,0,0,0,0,0,0,0,0,0,0,0,0,0,0.4603,0.4557,0.4713,0.4725,0.4728,0.4754,0.4753,0.4753,0.475,0.475,0.4751,0.4751,0.4662,0.4658,0.4654,0.4623,0,0,0.4642,0.464,0,0,0,0,0,0,0,0,0.46,0.4608,0.4722,0.4725,0.4727,0.4755,0.4664,0.4706,0.475,0.4732,0.4751,0.4751,0.4685,0.4679,0.4675,0.4619,0.4615,0.4642,0.4639,0.4638,0.4636,0,0,0,0,0,0,0,0.4597,0.4605,0.472,0.4724,0.4727,0.4702,0.4709,0.4672,0.4697,0.4733,0.4736,0.4754,0.4684,0.4679,0.4673,0.4614,0.4642,0.4638,0.4636,0.4634,0.454,0.454,0,0,0,0,0,0,0.4614,0.4603,0.4719,0.4722,0.4673,0.4706,0.4713,0.4738,0.47,0.4698,0.4754,0.4754,0.4686,0.4677,0.4669,0.4654,0.4638,0.4634,0.4632,0.454,0.454,0.454,0,0,0,0,0,0,0.4611,0.4624,0.4717,0.467,0.4681,0.471,0.4737,0.4739,0.474,0.4719,0.4713,0.4755,0.4686,0.4675,0.4645,0.465,0.4632,0.4629,0.4541,0.454,0.454,0.4609,0,0,0,0,0,0,0.4606,0.4623,0.4636,0.4672,0.4685,0.4738,0.4738,0.474,0.4756,0.4756,0.4717,0.4709,0.4685,0.4651,0.4641,0.4644,0.4625,0.4541,0.454,0.454,0.4606,0.4611,0.4614,0,0,0,0,0,0.46,0.4622,0.4636,0.4651,0.4706,0.4739,0.4742,0.4757,0.4755,0.4756,0.4734,0.4711,0.4642,0.4648,0.4636,0.4638,0.4541,0.4541,0.454,0.4605,0.461,0.4614,0,0,0,0,0,0,0.4555,0.4626,0.4642,0.4683,0.4713,0.4742,0.4751,0.4759,0.4742,0.4739,0.4707,0.4697,0.4674,0.4642,0.4649,0.4609,0.4587,0.4585,0.464,0.4645,0.4649,0.4662,0.4622,0,0,0,0,0,0.4556,0.4592,0.4647,0.4676,0.4697,0.4721,0.4734,0.4747,0.4749,0.4743,0.4719,0.4688,0.4662,0.4644,0.4613,0.4587,0.4611,0.4579,0.4583,0.4587,0.4589,0.4615,0.4623,0.4539,0.4539,0.4539,0,0,0.4547,0.4591,0.461,0.4669,0.4692,0.4716,0.4727,0.4756,0.4767,0.4732,0.4723,0.4699,0.4658,0.4638,0.4624,0.4612,0.4636,0.4586,0.459,0.459,0.4616,0.4625,0.4632,0.4539,0.4539,0.4539,0,0,0.4546,0.4588,0.4616,0.4643,0.4694,0.4712,0.4723,0.4755,0.4763,0.4757,0.4739,0.4719,0.4674,0.4654,0.4636,0.4636,0.4658,0.4626,0.4655,0.4682,0.4689,0.4696,0.4804,0.482,0.4627,0.4627,0.4627,0,0.4535,0.4585,0.4624,0.4654,0.4683,0.4711,0.4738,0.4747,0.476,0.4763,0.476,0.4718,0.4681,0.4666,0.4671,0.4646,0.4697,0.4646,0.469,0.4697,0.4703,0.4811,0.4828,0.463,0.463,0.4629,0.4629,0,0.4554,0.4593,0.4612,0.4664,0.4686,0.4719,0.4752,0.4754,0.4766,0.4777,0.4776,0.4748,0.4724,0.4711,0.469,0.471,0.475,0.4699,0.4688,0.4717,0.4828,0.4845,0.4635,0.4634,0.4633,0.4632,0,0,0.4544,0.4616,0.462,0.465,0.4703,0.4724,0.4737,0.4767,0.4778,0.4785,0.4804,0.477,0.4774,0.4754,0.4737,0.4755,0.4858,0.4754,0.4753,0.488,0.4997,0.5102,0.513,0.4825,0.4826,0.4827,0.5084,0,0.4556,0.4611,0.4642,0.4681,0.4721,0.4742,0.4758,0.4775,0.479,0.4806,0.4802,0.4809,0.4789,0.4791,0.481,0.4834,0.4893,0.4798,0.4932,0.4938,0.5041,0.5148,0.4922,0.5137,0.51,0.5102,0.5104,0,0.4573,0.4613,0.466,0.4717,0.4735,0.4747,0.4778,0.4798,0.4818,0.4835,0.4847,0.4852,0.489,0.4856,0.4964,0.4915,0.4968,0.4995,0.5004,0.5082,0.507,0.5085,0.5167,0.4996,0.5129,0.5127,0.5125,0,0.456,0.4626,0.4665,0.4685,0.4744,0.4752,0.4775,0.4798,0.4825,0.4858,0.4893,0.4926,0.4979,0.5019,0.5111,0.5039,0.5261,0.5155,0.5317,0.5328,0.515,0.5143,0.5086,0.5238,0.5237,0.5237,0.5236,0,0.4575,0.4602,0.4659,0.4679,0.4713,0.4756,0.4783,0.4803,0.4849,0.49,0.492,0.5002,0.502,0.5144,0.5178,0.5364,0.5333,0.5371,0.54,0.5177,0.517,0.5022,0.4943,0.5246,0.5244,0.5242,0.5241,0,0.455,0.4595,0.4639,0.4696,0.4711,0.473,0.4785,0.4805,0.4872,0.4942,0.4964,0.5093,0.5296,0.5375,0.5496,0.5497,0.5474,0.5678,0.5476,0.5477,0.5419,0.5354,0.5239,0.5092,0.587,0.5874,0.5878,0,0.454,0.4567,0.4629,0.4646,0.4668,0.4704,0.4728,0.4795,0.4835,0.5019,0.5068,0.5294,0.5446,0.5738,0.5795,0.5942,0.569,0.5792,0.5578,0.5442,0.5388,0.5162,0.5025,0.5393,0.5392,0.5391,0.5391,0,0.4519,0.4542,0.4571,0.4617,0.4644,0.4664,0.4716,0.475,0.486,0.4954,0.5136,0.5276,0.562,0.569,0.5929,0.5957,0.5501,0.5791,0.563,0.5029,0.4786,0.4648,0.5271,0.5385,0.5385,0.5386,0.5386,0.5386,0.4489,0.4499,0.4547,0.4571,0.4604,0.4613,0.4593,0.4679,0.4753,0.4874,0.5107,0.5261,0.5457,0.5781,0.5808,0.566,0.5607,0.5401,0.5356,0.5158,0.4919,0.5623,0.5777,0.5779,0.5782,0.5784,0.5786,0,0.4452,0.4468,0.4497,0.4518,0.4512,0.4545,0.4572,0.4534,0.4585,0.4782,0.4931,0.507,0.5212,0.5328,0.5327,0.5157,0.4875,0.5,0.4513,0.4414,0.5015,0.4895,0.4882,0.4883,0.4883,0.4883,0.4883,0.4883,0.4439,0.4441,0.4447,0.4417,0.4415,0.4343,0.4319,0.4295,0.4375,0.4399,0.4443,0.4578,0.4796,0.4957,0.4803,0.4692,0.4277,0.4161,0.4157,0.4469,0.4495,0.4521,0.4383,0.4264,0.4264,0.3298,0.3291,0.3286]},{"header":{"parameterUnit":"m.s-1","parameterCategory":2,"la1":30.2991,"la2":30.254,"lo1":-89.0895,"lo2":-89.0444,"dy":0.0017,"dx":0.0017,"nx":28,"ny":28,"refTime":"2025-07-22T21:00:00:Z","depth":"0","parameterNumber":3,"parameterNumberName":"V-component_of_CURRENTS"},"data":[0,0,0,0,0,0,0,0,0,0,0,0,0,0,0,0,0,0,0,0,0,0,0,0,0,0,0,0,0,0,0,0,0,0,0,0,0,0,0,0,0,0,0,0,0,0,0,0,0,0,0,0,0,0,0,0,0,0,-0.0869,-0.087,0,-0.0996,-0.0997,-0.0998,-0.1056,-0.1056,-0.1056,-0.1056,-0.1228,-0.1233,-0.1237,0,0,0,0,0,0,0,0,0,0,0,0,0,-0.0701,-0.0703,-0.0868,-0.087,-0.0872,-0.0995,-0.0997,-0.0998,-0.1056,-0.1056,-0.1056,-0.1056,-0.1227,-0.1232,-0.1238,0,0,0,0,0,0,0,0,0,0,0,0,0,-0.0793,-0.0704,-0.0868,-0.0918,-0.0923,-0.0995,-0.0997,-0.0999,-0.1056,-0.1056,-0.1056,-0.1056,-0.1225,-0.1232,-0.1238,-0.1276,0,0,-0.1259,-0.1262,0,0,0,0,0,0,0,0,-0.0787,-0.0799,-0.0909,-0.0914,-0.0921,-0.1012,-0.1001,-0.1095,-0.1056,-0.1003,-0.1056,-0.1057,-0.1162,-0.1174,-0.1193,-0.1284,-0.1292,-0.1259,-0.1263,-0.1266,-0.1268,0,0,0,0,0,0,0,-0.0781,-0.0794,-0.0916,-0.091,-0.0918,-0.0942,-0.0955,-0.1019,-0.1079,-0.1008,-0.1013,-0.1031,-0.1165,-0.1186,-0.1198,-0.1294,-0.1259,-0.1265,-0.1269,-0.1272,-0.1441,-0.1441,0,0,0,0,0,0,-0.077,-0.0788,-0.0912,-0.092,-0.0856,-0.0945,-0.0959,-0.0981,-0.1077,-0.1093,-0.1031,-0.1033,-0.1175,-0.119,-0.1204,-0.1242,-0.1266,-0.1273,-0.1276,-0.1441,-0.1441,-0.1442,0,0,0,0,0,0,-0.0765,-0.0779,-0.0907,-0.0858,-0.0877,-0.0948,-0.0972,-0.0983,-0.1002,-0.1095,-0.111,-0.1037,-0.1175,-0.1195,-0.1253,-0.125,-0.1276,-0.1282,-0.144,-0.1441,-0.1441,-0.1327,0,0,0,0,0,0,-0.076,-0.0777,-0.0783,-0.0858,-0.0879,-0.094,-0.0972,-0.0986,-0.1015,-0.1019,-0.1106,-0.1122,-0.1177,-0.1243,-0.126,-0.126,-0.1287,-0.1439,-0.144,-0.1441,-0.133,-0.1324,-0.1318,0,0,0,0,0,-0.0754,-0.0755,-0.0782,-0.0798,-0.0887,-0.0941,-0.0953,-0.1002,-0.1014,-0.102,-0.1077,-0.1119,-0.1261,-0.1248,-0.1268,-0.127,-0.1439,-0.144,-0.1441,-0.1333,-0.1325,-0.1318,0,0,0,0,0,0,-0.0675,-0.0764,-0.0795,-0.0821,-0.0875,-0.0951,-0.0959,-0.0995,-0.1043,-0.1044,-0.1124,-0.1145,-0.1195,-0.1253,-0.1237,-0.1324,-0.1358,-0.1363,-0.1269,-0.1263,-0.1257,-0.1206,-0.1293,0,0,0,0,0,-0.0665,-0.0692,-0.0776,-0.0793,-0.0817,-0.0886,-0.0912,-0.0947,-0.1004,-0.1025,-0.1088,-0.1156,-0.1217,-0.1253,-0.1316,-0.1363,-0.1376,-0.1381,-0.1374,-0.1369,-0.1343,-0.1382,-0.1376,-0.1445,-0.1445,-0.1445,0,0,-0.0639,-0.0689,-0.0705,-0.0779,-0.0821,-0.0837,-0.09,-0.0932,-0.0941,-0.1038,-0.1063,-0.1137,-0.1225,-0.1273,-0.1302,-0.1319,-0.1348,-0.137,-0.1364,-0.1342,-0.1383,-0.1375,-0.1369,-0.1446,-0.1446,-0.1446,0,0,-0.0589,-0.0645,-0.0647,-0.0686,-0.0751,-0.0795,-0.08,-0.0876,-0.0905,-0.095,-0.1018,-0.1078,-0.1178,-0.1232,-0.1274,-0.1276,-0.1314,-0.1312,-0.1241,-0.1279,-0.1273,-0.1267,-0.1229,-0.1221,-0.131,-0.131,-0.131,0,-0.0549,-0.0571,-0.0652,-0.0657,-0.0674,-0.0767,-0.0756,-0.0802,-0.0885,-0.0897,-0.0941,-0.1069,-0.115,-0.1197,-0.1204,-0.1257,-0.1264,-0.1255,-0.1266,-0.1262,-0.1258,-0.1221,-0.1213,-0.1304,-0.1305,-0.1306,-0.1306,0,-0.0504,-0.0517,-0.0516,-0.0555,-0.0581,-0.0591,-0.0664,-0.0687,-0.0737,-0.0787,-0.0847,-0.0964,-0.103,-0.1084,-0.1147,-0.1171,-0.1175,-0.1248,-0.1271,-0.1244,-0.1206,-0.1201,-0.1297,-0.1299,-0.13,-0.1302,0,0,-0.0418,-0.0474,-0.047,-0.0458,-0.0527,-0.0532,-0.0546,-0.0581,-0.0557,-0.0672,-0.0652,-0.0803,-0.0866,-0.0919,-0.102,-0.1073,-0.1053,-0.1144,-0.1149,-0.1077,-0.1077,-0.0954,-0.0937,-0.1136,-0.1135,-0.1135,-0.1042,0,-0.0351,-0.0325,-0.038,-0.0336,-0.0321,-0.0395,-0.0389,-0.0429,-0.0477,-0.0482,-0.0618,-0.0657,-0.0806,-0.0833,-0.0909,-0.1011,-0.1042,-0.1067,-0.1138,-0.1138,-0.1012,-0.0928,-0.0902,-0.0807,-0.1037,-0.1036,-0.1035,0,-0.0272,-0.027,-0.0216,-0.0209,-0.0207,-0.0189,-0.0168,-0.0181,-0.0228,-0.0268,-0.0341,-0.0443,-0.0529,-0.0668,-0.0811,-0.082,-0.093,-0.1022,-0.1023,-0.0942,-0.1006,-0.0886,-0.0789,-0.1073,-0.1027,-0.1028,-0.1028,0,-0.0137,-0.0139,-0.0084,-0.0086,-0.0102,-0.0069,-0.0071,-0.0097,-0.0069,-0.0117,-0.0085,-0.024,-0.0268,-0.0455,-0.0634,-0.0729,-0.0751,-0.0909,-0.0895,-0.0885,-0.0889,-0.0879,-0.1051,-0.1001,-0.1002,-0.1002,-0.1002,0,-0.0026,0.0027,-0.0008,0.0031,0.0119,0.0064,0.0165,0.0137,0.0147,0.0236,0.0044,0.0109,-0.0224,-0.0285,-0.051,-0.061,-0.0646,-0.0828,-0.0848,-0.0843,-0.0831,-0.1101,-0.1271,-0.0998,-0.0999,-0.1,-0.1001,0,0.014,0.0107,0.0182,0.0181,0.0194,0.0271,0.0327,0.04,0.0379,0.0505,0.0502,0.04,0.034,0.0072,-0.0164,-0.0387,-0.0658,-0.0584,-0.0499,-0.0511,-0.0802,-0.0963,-0.1065,-0.1167,-0.057,-0.0566,-0.0563,0,0.0235,0.0282,0.0317,0.0372,0.0386,0.0471,0.0539,0.0526,0.0617,0.0723,0.0816,0.0792,0.0851,0.0601,0.0207,-0.0081,-0.0437,-0.0307,-0.0515,-0.0751,-0.0952,-0.1079,-0.1171,-0.0469,-0.0466,-0.0463,-0.046,0,0.0403,0.0409,0.0455,0.056,0.0646,0.0744,0.0846,0.0955,0.0995,0.1131,0.1339,0.1415,0.1217,0.0973,0.0558,0.0276,-0.0476,-0.0252,-0.0567,-0.0905,-0.0989,-0.1117,-0.0555,-0.0434,-0.0437,-0.0439,-0.044,-0.0441,0.0527,0.0591,0.0635,0.0741,0.0849,0.1,0.1114,0.1265,0.147,0.173,0.1782,0.2008,0.1558,0.1028,0.0629,-0.0167,-0.0223,-0.0499,-0.0671,-0.0773,-0.0892,-0.0193,-0.0062,-0.0062,-0.0062,-0.0063,-0.0063,0,0.0638,0.0689,0.0803,0.093,0.1075,0.1089,0.1297,0.1445,0.1736,0.2087,0.2326,0.2306,0.1742,0.1053,0.0018,-0.0532,-0.0821,-0.0879,-0.116,-0.1237,-0.0681,-0.0702,-0.0617,-0.0617,-0.0616,-0.0616,-0.0616,-0.0616,0.0697,0.0797,0.0837,0.1074,0.1182,0.1377,0.1495,0.1771,0.2047,0.251,0.2741,0.2866,0.2277,0.0442,-0.083,-0.1123,-0.1591,-0.1601,-0.1827,-0.1589,-0.1573,-0.1557,-0.1622,-0.1731,-0.1732,-0.2344,-0.2351,-0.2356]}],[{"header":{"parameterUnit":"m.s-1","parameterCategory":2,"la1":30.2991,"la2":30.254,"lo1":-89.0895,"lo2":-89.0444,"dy":0.0017,"dx":0.0017,"nx":28,"ny":28,"refTime":"2025-07-22T21:00:00:Z","depth":"2","parameterNumber":2,"parameterNumberName":"U-component_of_CURRENTS"},"data":[0,0,0,0,0,0,0,0,0,0,0,0,0,0,0,0,0,0,0,0,0,0,0,0,0,0,0,0,0,0,0,0,0,0,0,0,0,0,0,0,0,0,0,0,0,0,0,0,0,0,0,0,0,0,0,0,0,0,0.2828,0.283,0,0.301,0.3012,0.3014,0.3172,0.3174,0.3176,0.3178,0.3319,0.3321,0.3323,0,0,0,0,0,0,0,0,0,0,0,0,0,0.2672,0.2673,0.2827,0.283,0.2833,0.301,0.3012,0.3014,0.3172,0.3174,0.3177,0.3179,0.3319,0.3321,0.3323,0,0,0,0,0,0,0,0,0,0,0,0,0,0.2781,0.2673,0.2827,0.2935,0.2947,0.301,0.3012,0.3015,0.3171,0.3174,0.3177,0.318,0.3318,0.332,0.3323,0.3276,0,0,0.3331,0.3332,0,0,0,0,0,0,0,0,0.2775,0.2786,0.2917,0.2928,0.2941,0.3075,0.301,0.3101,0.317,0.3082,0.3178,0.3182,0.3234,0.3243,0.3266,0.3282,0.3288,0.3331,0.3333,0.3334,0.3335,0,0,0,0,0,0,0,0.2767,0.278,0.2896,0.2919,0.2934,0.2995,0.3013,0.3028,0.3134,0.309,0.3103,0.3128,0.324,0.3263,0.327,0.329,0.3331,0.3334,0.3335,0.3336,0.3415,0.3415,0,0,0,0,0,0,0.2746,0.2772,0.289,0.2902,0.2869,0.2995,0.3015,0.3026,0.3135,0.3156,0.3125,0.3135,0.3257,0.3267,0.3276,0.3416,0.3334,0.3337,0.3338,0.3414,0.3415,0.3415,0,0,0,0,0,0,0.2741,0.2753,0.2883,0.2845,0.2867,0.2994,0.3005,0.3028,0.3101,0.3163,0.3184,0.3181,0.326,0.3272,0.3305,0.3415,0.3338,0.334,0.3414,0.3415,0.3415,0.3573,0,0,0,0,0,0,0.2735,0.275,0.2761,0.2843,0.2868,0.2984,0.3003,0.3029,0.311,0.3126,0.3216,0.323,0.3263,0.33,0.3308,0.3418,0.3342,0.3413,0.3414,0.3415,0.3568,0.3579,0.359,0,0,0,0,0,0.2729,0.2749,0.2759,0.2775,0.2874,0.2987,0.3007,0.3104,0.311,0.3173,0.3186,0.323,0.3314,0.3301,0.331,0.3424,0.3413,0.3414,0.3415,0.3563,0.3577,0.3589,0,0,0,0,0,0,0.2695,0.2768,0.2783,0.2824,0.292,0.3017,0.3078,0.3114,0.3173,0.3182,0.3213,0.3228,0.3316,0.3304,0.329,0.3438,0.3379,0.3382,0.3489,0.3503,0.3513,0.3509,0.3345,0,0,0,0,0,0.2681,0.2717,0.2803,0.2844,0.289,0.2974,0.3029,0.3095,0.3153,0.3187,0.3251,0.3283,0.3315,0.3354,0.339,0.3443,0.344,0.3521,0.3532,0.3542,0.3537,0.3603,0.3622,0.3419,0.3419,0.3419,0,0,0.2681,0.2725,0.2748,0.284,0.2913,0.3006,0.3019,0.3126,0.3207,0.3183,0.3311,0.333,0.333,0.3421,0.3461,0.3436,0.3598,0.3544,0.3553,0.3542,0.3606,0.3627,0.3645,0.342,0.342,0.342,0,0,0.2726,0.2739,0.2802,0.2876,0.2994,0.3049,0.3083,0.3207,0.3275,0.3362,0.3368,0.3425,0.3499,0.3538,0.3548,0.3618,0.3652,0.3652,0.3724,0.379,0.3808,0.3824,0.3861,0.3879,0.3664,0.3664,0.3664,0,0.2726,0.2805,0.2845,0.2934,0.2997,0.307,0.3164,0.3238,0.3364,0.3401,0.3432,0.3529,0.3559,0.3622,0.3666,0.3659,0.3678,0.369,0.3811,0.3826,0.384,0.3873,0.3892,0.3672,0.3671,0.367,0.3669,0,0.2843,0.2899,0.2949,0.3067,0.3136,0.3238,0.3329,0.3419,0.3487,0.3552,0.3661,0.3693,0.3738,0.3789,0.3756,0.3869,0.3846,0.3823,0.3793,0.3872,0.39,0.3916,0.3683,0.368,0.3678,0.3676,0,0,0.291,0.3001,0.3044,0.307,0.3212,0.3273,0.3395,0.3514,0.3575,0.3713,0.3802,0.3885,0.3894,0.3899,0.3899,0.3973,0.4108,0.3951,0.395,0.4013,0.4247,0.4201,0.4213,0.4125,0.4128,0.4131,0.4234,0,0.3015,0.3129,0.3182,0.3304,0.3355,0.3424,0.3516,0.3613,0.3707,0.3817,0.3871,0.3951,0.3936,0.3967,0.4041,0.4093,0.4155,0.4081,0.4135,0.4135,0.4109,0.4232,0.3891,0.3953,0.4249,0.4252,0.4254,0,0.3152,0.3201,0.3296,0.3348,0.3386,0.3461,0.3575,0.3672,0.3803,0.3874,0.396,0.4001,0.4111,0.4088,0.4232,0.4191,0.4217,0.4261,0.4266,0.4173,0.4119,0.3915,0.397,0.428,0.4278,0.4276,0.4274,0,0.3152,0.3285,0.3329,0.3365,0.3452,0.3496,0.3564,0.3684,0.3762,0.3901,0.3981,0.4089,0.4174,0.4245,0.4335,0.4293,0.4504,0.4444,0.4418,0.4413,0.4104,0.4067,0.4529,0.4528,0.4528,0.4528,0.4528,0,0.3213,0.3264,0.3318,0.3345,0.3411,0.3472,0.3563,0.3648,0.3783,0.3895,0.3986,0.4112,0.4228,0.4355,0.4389,0.4481,0.4541,0.4454,0.4455,0.4148,0.4116,0.4364,0.4344,0.4532,0.4531,0.453,0.4529,0,0.3175,0.3226,0.3268,0.3357,0.3387,0.3425,0.3547,0.3614,0.3749,0.3907,0.3958,0.4166,0.434,0.4432,0.4585,0.4557,0.4636,0.4632,0.426,0.4216,0.4474,0.446,0.4604,0.4604,0.4603,0.4603,0.4603,0,0.314,0.3154,0.3246,0.3272,0.3308,0.3379,0.3434,0.3578,0.3668,0.3955,0.4036,0.4254,0.4372,0.457,0.4581,0.4616,0.468,0.4315,0.4165,0.4505,0.4491,0.4477,0.4464,0.3811,0.3805,0.3799,0.3795,0,0.306,0.3098,0.312,0.3178,0.3231,0.3299,0.34,0.3462,0.3672,0.3796,0.3992,0.4105,0.4336,0.4249,0.4335,0.4314,0.4282,0.4207,0.4682,0.386,0.3771,0.3753,0.3763,0.3746,0.3751,0.3755,0.3757,0.3759,0.2974,0.2968,0.2993,0.3042,0.3116,0.317,0.3162,0.3294,0.3384,0.3492,0.3768,0.381,0.3935,0.3873,0.3829,0.3816,0.4079,0.3886,0.3897,0.3915,0.382,0.3737,0.3686,0.369,0.3694,0.3697,0.37,0,0.281,0.2823,0.2857,0.2884,0.2894,0.3007,0.3092,0.3041,0.3064,0.3217,0.3283,0.3095,0.3119,0.3273,0.3179,0.3229,0.3136,0.3115,0.2942,0.2996,0.3043,0.2895,0.252,0.2516,0.2512,0.2509,0,0,0.2711,0.2645,0.2664,0.2619,0.2673,0.2615,0.2619,0.2584,0.2635,0.2544,0.255,0.2785,0.3095,0.2683,0.2708,0.259,0.274,0.25,0.3455,0.3298,0.3337,0.3517,0.3357,0,0,0,0,0]},{"header":{"parameterUnit":"m.s-1","parameterCategory":2,"la1":30.2991,"la2":30.254,"lo1":-89.0895,"lo2":-89.0444,"dy":0.0017,"dx":0.0017,"nx":28,"ny":28,"refTime":"2025-07-22T21:00:00:Z","depth":"2","parameterNumber":3,"parameterNumberName":"V-component_of_CURRENTS"},"data":[0,0,0,0,0,0,0,0,0,0,0,0,0,0,0,0,0,0,0,0,0,0,0,0,0,0,0,0,0,0,0,0,0,0,0,0,0,0,0,0,0,0,0,0,0,0,0,0,0,0,0,0,0,0,0,0,0,0,0.055,0.055,0,0.0468,0.0467,0.0465,0.0343,0.0341,0.0339,0.0337,0.0102,0.0098,0.0094,0,0,0,0,0,0,0,0,0,0,0,0,0,0.0569,0.0569,0.055,0.055,0.0549,0.0468,0.0467,0.0465,0.0343,0.0341,0.0339,0.0336,0.0104,0.0099,0.0093,0,0,0,0,0,0,0,0,0,0,0,0,0,0.0529,0.0569,0.055,0.048,0.0473,0.0468,0.0466,0.0465,0.0344,0.0341,0.0338,0.0335,0.0106,0.0099,0.0092,0.0109,0,0,0.0072,0.0069,0,0,0,0,0,0,0,0,0.0531,0.0528,0.0491,0.0485,0.0477,0.0415,0.0387,0.0339,0.0345,0.039,0.0337,0.0334,0.0196,0.0182,0.0172,0.0098,0.0088,0.0071,0.0067,0.0065,0.0063,0,0,0,0,0,0,0,0.0534,0.0531,0.0515,0.0491,0.0482,0.0441,0.0432,0.0378,0.0306,0.0386,0.0378,0.0373,0.0191,0.0179,0.0165,0.0085,0.0072,0.0066,0.0062,0.0059,-0.0066,-0.0066,0,0,0,0,0,0,0.0555,0.0534,0.0518,0.0513,0.05,0.0443,0.0433,0.0436,0.0309,0.0289,0.0376,0.0368,0.0192,0.0173,0.0156,0.0062,0.0065,0.0058,0.0054,-0.0067,-0.0066,-0.0065,0,0,0,0,0,0,0.0556,0.0555,0.0521,0.0523,0.0516,0.0447,0.045,0.0436,0.0395,0.0304,0.0279,0.0346,0.0189,0.0165,0.0101,0.0055,0.0055,0.0049,-0.0068,-0.0067,-0.0066,-0.006,0,0,0,0,0,0,0.0557,0.0556,0.0564,0.0525,0.0517,0.0506,0.0453,0.0436,0.04,0.0387,0.0272,0.0248,0.0184,0.0112,0.0095,0.0046,0.0044,-0.0069,-0.0067,-0.0066,-0.0061,-0.0058,-0.0057,0,0,0,0,0,0.0558,0.0577,0.0566,0.0563,0.0531,0.0507,0.0499,0.0438,0.0401,0.0389,0.0319,0.025,0.0107,0.0108,0.0087,0.0035,-0.0069,-0.0068,-0.0066,-0.0062,-0.0059,-0.0057,0,0,0,0,0,0,0.0583,0.0566,0.0552,0.0563,0.0535,0.0487,0.0474,0.0438,0.0378,0.0356,0.0264,0.0238,0.0165,0.0121,0.0125,0.0011,0.0006,0.0003,0.0016,0.0018,0.002,0.0033,0.0038,0,0,0,0,0,0.0602,0.0612,0.0582,0.059,0.0577,0.0527,0.0509,0.047,0.0416,0.0385,0.0295,0.0219,0.0165,0.0108,0.0057,-0.0006,-0.0017,-0.0049,-0.0047,-0.0045,-0.0043,-0.0074,-0.0076,-0.006,-0.006,-0.006,0,0,0.0612,0.0608,0.061,0.0597,0.0567,0.0556,0.0506,0.0478,0.0446,0.037,0.0281,0.0225,0.016,0.0089,0.005,0.0033,-0.0051,-0.0043,-0.0042,-0.0041,-0.0073,-0.0075,-0.0077,-0.0059,-0.0059,-0.006,0,0,0.0642,0.0634,0.0649,0.0628,0.0598,0.0573,0.0564,0.0498,0.044,0.0372,0.0317,0.0253,0.0131,0.0087,0.0051,0.0044,-0.0024,0.0002,-0.0009,-0.0039,-0.0041,-0.0043,-0.0043,-0.0045,-0.0017,-0.0017,-0.0017,0,0.0655,0.0664,0.0647,0.0648,0.0627,0.0581,0.0572,0.0527,0.0439,0.0399,0.0337,0.0206,0.0137,0.0088,0.0063,0.0043,0.0019,-0.0021,-0.0039,-0.0041,-0.0044,-0.0043,-0.0045,-0.0017,-0.0017,-0.0017,-0.0017,0,0.0686,0.0684,0.0685,0.0676,0.0661,0.064,0.0587,0.0542,0.046,0.0405,0.0312,0.0226,0.0149,0.0105,0.006,0.001,-0.0001,-0.0019,-0.005,-0.0045,-0.0044,-0.0047,-0.0016,-0.0016,-0.0016,-0.0016,0,0,0.0699,0.071,0.0693,0.07,0.0662,0.0656,0.0612,0.0562,0.0542,0.0412,0.0362,0.024,0.0185,0.0146,0.0084,0.0025,-0.002,-0.0029,-0.0031,-0.0036,-0.0083,-0.0148,-0.0157,-0.0065,-0.0066,-0.0066,-0.007,0,0.0707,0.073,0.0717,0.0717,0.0721,0.0674,0.0649,0.0603,0.0529,0.0471,0.0364,0.0299,0.0204,0.0158,0.0085,0.0015,-0.0031,-0.0016,-0.0079,-0.008,-0.0147,-0.0164,-0.0151,-0.016,-0.0073,-0.0073,-0.0073,0,0.0713,0.073,0.0739,0.0751,0.0743,0.0735,0.07,0.0668,0.0601,0.0537,0.0452,0.0381,0.0283,0.0205,0.0069,0.0069,-0.0008,-0.0069,-0.0071,-0.0139,-0.0152,-0.0153,-0.0169,-0.0078,-0.0078,-0.0077,-0.0077,0,0.0727,0.0732,0.0745,0.074,0.0752,0.0732,0.0718,0.0675,0.0661,0.0583,0.0569,0.0446,0.0389,0.0256,0.0105,0.0075,-0.0027,-0.0065,-0.0178,-0.0181,-0.0183,-0.0187,-0.014,-0.014,-0.014,-0.014,-0.014,0,0.0735,0.0737,0.0752,0.0757,0.0775,0.0757,0.0761,0.0732,0.0707,0.0741,0.0601,0.0623,0.0387,0.0301,0.015,-0.0026,0.0014,-0.0181,-0.0199,-0.0178,-0.0181,-0.0123,-0.0121,-0.014,-0.014,-0.014,-0.014,0,0.0746,0.0752,0.0781,0.0787,0.0789,0.0793,0.0804,0.0828,0.0783,0.0827,0.0808,0.0735,0.0621,0.0411,0.0229,0.0049,-0.0108,-0.0165,-0.0119,-0.0135,-0.0248,-0.0246,-0.0309,-0.0311,-0.0314,-0.0316,-0.0317,0,0.0754,0.0773,0.0804,0.0829,0.0825,0.0836,0.0867,0.0852,0.0902,0.094,0.0991,0.0892,0.0881,0.0562,0.0222,-0.0064,-0.008,-0.0252,-0.0326,-0.0261,-0.0272,-0.0265,-0.026,-0.0301,-0.0302,-0.0303,-0.0304,0,0.0769,0.0777,0.0807,0.0869,0.0903,0.0965,0.1009,0.1079,0.1113,0.1192,0.1319,0.1316,0.098,0.0676,0.0208,0.0012,-0.023,-0.0287,-0.0216,-0.0281,-0.0261,-0.0269,-0.0262,-0.0313,-0.0312,-0.0312,-0.0311,-0.0311,0.0765,0.0799,0.0848,0.0916,0.0977,0.1098,0.1201,0.1314,0.1465,0.1602,0.1569,0.1558,0.1139,0.054,0.0162,-0.0278,-0.0268,-0.0423,-0.0416,-0.0408,-0.0428,-0.0416,-0.0498,-0.0498,-0.0498,-0.0498,-0.0498,0,0.077,0.0826,0.0894,0.1002,0.1123,0.1134,0.1318,0.1479,0.1747,0.1782,0.1864,0.148,0.1092,0.0635,-0.0036,-0.0436,-0.0447,-0.0542,-0.0467,-0.0457,-0.0448,-0.0467,-0.0548,-0.0549,-0.055,-0.0551,0,0,0.077,0.0855,0.0919,0.1119,0.1211,0.1417,0.1561,0.182,0.1927,0.2007,0.194,0.1765,0.1208,0.0723,0.0184,-0.0177,-0.0218,-0.0247,-0.0173,-0.0014,0.0001,-0.0358,-0.0374,0,0,0,0,0]}],[{"header":{"parameterUnit":"m.s-1","parameterCategory":2,"la1":30.2991,"la2":30.254,"lo1":-89.0895,"lo2":-89.0444,"dy":0.0017,"dx":0.0017,"nx":28,"ny":28,"refTime":"2025-07-22T21:00:00:Z","depth":"4","parameterNumber":2,"parameterNumberName":"U-component_of_CURRENTS"},"data":[0,0,0,0,0,0,0,0,0,0,0,0,0,0,0,0,0,0,0,0,0,0,0,0,0,0,0,0,0,0,0,0,0,0,0,0,0,0,0,0,0,0,0,0,0,0,0,0,0,0,0,0,0,0,0,0,0,0,0.1313,0.1314,0,0.1382,0.1382,0.1383,0.1439,0.1439,0.144,0.1441,0.1576,0.1578,0.1581,0,0,0,0,0,0,0,0,0,0,0,0,0,0.1221,0.1222,0.1313,0.1314,0.1315,0.1381,0.1382,0.1383,0.1438,0.1439,0.144,0.1441,0.1575,0.1578,0.1582,0,0,0,0,0,0,0,0,0,0,0,0,0,0.1271,0.1223,0.1313,0.1352,0.1357,0.1381,0.1382,0.1383,0.1438,0.1439,0.144,0.1441,0.1574,0.1578,0.1582,0.1586,0,0,0.1595,0.1597,0,0,0,0,0,0,0,0,0.1268,0.1274,0.1345,0.135,0.1355,0.1404,0.1399,0.1455,0.1438,0.1405,0.1441,0.1442,0.1525,0.1533,0.154,0.1593,0.1598,0.1596,0.1598,0.16,0.1601,0,0,0,0,0,0,0,0.1264,0.1271,0.1338,0.1346,0.1352,0.1363,0.1372,0.141,0.1458,0.1408,0.1413,0.1423,0.1528,0.1536,0.1544,0.16,0.1596,0.1599,0.1602,0.1604,0.1767,0.1769,0,0,0,0,0,0,0.1259,0.1268,0.1336,0.1341,0.1315,0.1364,0.1373,0.1386,0.1456,0.1468,0.1422,0.1425,0.1528,0.1539,0.1549,0.1663,0.16,0.1604,0.1607,0.1766,0.1768,0.177,0,0,0,0,0,0,0.1257,0.1265,0.1333,0.1307,0.1317,0.1365,0.1378,0.1386,0.1428,0.1466,0.1479,0.1459,0.1529,0.1543,0.1621,0.1665,0.1606,0.161,0.1764,0.1766,0.1769,0.1825,0,0,0,0,0,0,0.1254,0.1263,0.1282,0.1307,0.1318,0.1358,0.1378,0.1387,0.1431,0.1437,0.1502,0.1513,0.1531,0.1615,0.1626,0.167,0.1613,0.1761,0.1765,0.1768,0.1821,0.1829,0.1836,0,0,0,0,0,0.125,0.1258,0.1283,0.1292,0.1339,0.1359,0.1366,0.1402,0.1432,0.1445,0.1507,0.1513,0.1643,0.162,0.1632,0.1679,0.176,0.1764,0.1768,0.1818,0.1828,0.1836,0,0,0,0,0,0,0.1222,0.1266,0.1293,0.1315,0.1344,0.1369,0.1392,0.1419,0.1476,0.1499,0.1539,0.1555,0.1642,0.1649,0.1623,0.1734,0.1701,0.1707,0.1735,0.1744,0.1752,0.1769,0.1617,0,0,0,0,0,0.1227,0.1252,0.1288,0.1309,0.133,0.1371,0.1391,0.1415,0.1462,0.1488,0.1535,0.1594,0.1659,0.1694,0.174,0.18,0.1819,0.1836,0.1844,0.185,0.1873,0.1951,0.1968,0.1782,0.1782,0.1782,0,0,0.1221,0.125,0.1265,0.1307,0.134,0.1367,0.1386,0.1423,0.1466,0.1495,0.158,0.1627,0.1683,0.1757,0.1795,0.1774,0.1907,0.1855,0.186,0.188,0.1957,0.1976,0.1992,0.1785,0.1785,0.1784,0,0,0.1213,0.1254,0.1275,0.1306,0.1359,0.1379,0.1398,0.1444,0.1494,0.157,0.1614,0.1692,0.1772,0.1824,0.1863,0.1939,0.1949,0.195,0.2004,0.208,0.2096,0.2111,0.2129,0.2145,0.1949,0.1949,0.1949,0,0.1213,0.1243,0.1281,0.1314,0.1348,0.139,0.1422,0.1471,0.1539,0.1601,0.1607,0.1761,0.1809,0.1917,0.1957,0.196,0.1987,0.1964,0.2091,0.2106,0.212,0.2136,0.2153,0.1952,0.1952,0.1952,0.1951,0,0.1216,0.1258,0.1274,0.1334,0.137,0.1402,0.1471,0.1523,0.159,0.1653,0.1782,0.1842,0.1941,0.1962,0.1998,0.2121,0.21,0.2095,0.2068,0.2143,0.2153,0.217,0.1957,0.1956,0.1955,0.1954,0,0,0.1157,0.1261,0.1266,0.1317,0.1391,0.1418,0.1502,0.1596,0.1667,0.1757,0.188,0.1991,0.2041,0.2088,0.2124,0.2191,0.2313,0.22,0.2203,0.2217,0.2455,0.2315,0.2318,0.234,0.2344,0.2348,0.2411,0,0.1153,0.1222,0.1272,0.1341,0.1385,0.1463,0.1542,0.1641,0.1721,0.1846,0.1964,0.2094,0.2084,0.2157,0.2224,0.2314,0.2366,0.2295,0.2382,0.2384,0.2251,0.2337,0.236,0.2424,0.2427,0.243,0.2432,0,0.1122,0.1185,0.1254,0.1382,0.1411,0.1468,0.1594,0.1671,0.1848,0.1936,0.2063,0.216,0.2321,0.2298,0.2446,0.2408,0.245,0.2482,0.2485,0.2353,0.2276,0.2341,0.2462,0.246,0.2458,0.2455,0.2454,0,0.1054,0.1164,0.1227,0.1266,0.1406,0.1483,0.1577,0.1716,0.1802,0.2021,0.2095,0.2276,0.2409,0.2483,0.2571,0.2539,0.2712,0.2663,0.2551,0.2539,0.2618,0.2602,0.2766,0.2765,0.2765,0.2765,0.2765,0,0.1012,0.1063,0.1217,0.1255,0.1357,0.148,0.159,0.1706,0.188,0.1999,0.2153,0.2251,0.2477,0.2592,0.2624,0.2641,0.2751,0.2584,0.2566,0.2633,0.2619,0.2628,0.2611,0.2767,0.2767,0.2767,0.2766,0,0.0915,0.1009,0.109,0.1264,0.1328,0.141,0.1609,0.1669,0.1841,0.1995,0.2094,0.2323,0.2478,0.2598,0.2774,0.2701,0.2736,0.271,0.2769,0.275,0.2485,0.247,0.2573,0.2569,0.2566,0.2563,0.2561,0,0.0876,0.0902,0.1076,0.1119,0.1208,0.1349,0.1432,0.1651,0.1727,0.1993,0.2067,0.2311,0.2442,0.2527,0.2681,0.2725,0.2697,0.268,0.2585,0.2503,0.2476,0.2467,0.2457,0.2555,0.2554,0.2554,0.2553,0,0.0784,0.0843,0.0914,0.101,0.1106,0.1194,0.1364,0.1425,0.1675,0.184,0.2019,0.2145,0.2321,0.2469,0.2551,0.2564,0.2675,0.2644,0.2649,0.2559,0.2482,0.2457,0.2451,0.2541,0.2543,0.2544,0.2544,0,0.0709,0.0723,0.0805,0.0882,0.0961,0.1016,0.1142,0.1293,0.1425,0.1759,0.1838,0.2067,0.2325,0.2386,0.2444,0.2477,0.2425,0.233,0.235,0.2365,0.2273,0.2143,0.2106,0,0,0,0,0,0.0625,0.0622,0.067,0.0745,0.0803,0.0873,0.1057,0.1189,0.1469,0.1546,0.1699,0.1858,0.2021,0.2148,0.2141,0.2317,0.2401,0.2295,0.2291,0.2476,0.249,0.2405,0,0,0,0,0,0,0.0561,0.0592,0.0622,0.0587,0.0612,0.0685,0.0802,0.1006,0.1086,0.1385,0.1487,0.1719,0.1896,0.1996,0.2091,0.213,0.2085,0.2461,0.2456,0.2469,0.2481,0.2492,0.2409,0,0,0,0,0]},{"header":{"parameterUnit":"m.s-1","parameterCategory":2,"la1":30.2991,"la2":30.254,"lo1":-89.0895,"lo2":-89.0444,"dy":0.0017,"dx":0.0017,"nx":28,"ny":28,"refTime":"2025-07-22T21:00:00:Z","depth":"4","parameterNumber":3,"parameterNumberName":"V-component_of_CURRENTS"},"data":[0,0,0,0,0,0,0,0,0,0,0,0,0,0,0,0,0,0,0,0,0,0,0,0,0,0,0,0,0,0,0,0,0,0,0,0,0,0,0,0,0,0,0,0,0,0,0,0,0,0,0,0,0,0,0,0,0,0,0.0511,0.0511,0,0.0474,0.0473,0.0472,0.0452,0.0452,0.0453,0.0453,0.0384,0.0382,0.038,0,0,0,0,0,0,0,0,0,0,0,0,0,0.0481,0.0482,0.0511,0.0511,0.051,0.0474,0.0473,0.0472,0.0452,0.0452,0.0453,0.0453,0.0385,0.0382,0.038,0,0,0,0,0,0,0,0,0,0,0,0,0,0.0472,0.0482,0.0511,0.0498,0.0497,0.0474,0.0473,0.0472,0.0452,0.0452,0.0453,0.0453,0.0385,0.0382,0.0379,0.0355,0,0,0.037,0.0369,0,0,0,0,0,0,0,0,0.0472,0.0472,0.05,0.0499,0.0497,0.047,0.0437,0.0432,0.0452,0.0466,0.0453,0.0453,0.0411,0.0406,0.0395,0.0351,0.0349,0.037,0.0368,0.0367,0.0366,0,0,0,0,0,0,0,0.0473,0.0473,0.0493,0.05,0.0498,0.0465,0.0465,0.0436,0.0435,0.0465,0.0464,0.0464,0.041,0.0398,0.0393,0.0348,0.037,0.0367,0.0365,0.0364,0.0293,0.0292,0,0,0,0,0,0,0.0487,0.0475,0.0495,0.0493,0.0488,0.0466,0.0466,0.0476,0.0436,0.0431,0.0464,0.0463,0.0403,0.0397,0.0391,0.0392,0.0367,0.0364,0.0362,0.0293,0.0293,0.0292,0,0,0,0,0,0,0.0487,0.049,0.0496,0.0484,0.0483,0.0468,0.0479,0.0476,0.0479,0.0436,0.043,0.0474,0.0403,0.0395,0.0382,0.0388,0.0363,0.036,0.0293,0.0293,0.0293,0.0373,0,0,0,0,0,0,0.0486,0.049,0.0507,0.0485,0.0484,0.0499,0.0479,0.0475,0.0479,0.0479,0.0442,0.0435,0.0403,0.0387,0.0379,0.0383,0.0357,0.0293,0.0293,0.0293,0.0371,0.0376,0.038,0,0,0,0,0,0.0486,0.0512,0.0509,0.0511,0.0508,0.05,0.0497,0.0484,0.048,0.0487,0.0463,0.0437,0.0379,0.0385,0.0375,0.0379,0.0293,0.0293,0.0293,0.0369,0.0375,0.038,0,0,0,0,0,0,0.0508,0.0511,0.0508,0.0534,0.0525,0.0499,0.0507,0.0496,0.0482,0.0482,0.0442,0.0434,0.042,0.0388,0.0395,0.0355,0.0329,0.0327,0.039,0.0395,0.04,0.0415,0.0355,0,0,0,0,0,0.0522,0.0545,0.0532,0.0554,0.0553,0.0532,0.053,0.0519,0.0502,0.0497,0.0474,0.0441,0.0408,0.0396,0.0363,0.0348,0.0297,0.034,0.0345,0.035,0.0353,0.0282,0.0281,0.0292,0.0292,0.0292,0,0,0.0536,0.0542,0.0554,0.0561,0.0552,0.0555,0.0532,0.0535,0.054,0.049,0.0497,0.046,0.0407,0.039,0.038,0.0368,0.0318,0.0349,0.0354,0.0355,0.0282,0.0281,0.028,0.0292,0.0292,0.0292,0,0,0.0568,0.0582,0.0604,0.0603,0.06,0.0584,0.0591,0.0575,0.0574,0.0571,0.053,0.0502,0.0466,0.0425,0.0398,0.0407,0.0346,0.0396,0.0435,0.0367,0.0365,0.0363,0.0296,0.0287,0.04,0.04,0.04,0,0.0583,0.0612,0.0608,0.0624,0.0628,0.0603,0.0616,0.0609,0.0593,0.0588,0.0586,0.0514,0.0478,0.0435,0.0443,0.0419,0.0371,0.0423,0.0374,0.0371,0.0368,0.0299,0.0288,0.0404,0.0403,0.0403,0.0402,0,0.0625,0.0646,0.066,0.0673,0.0675,0.0685,0.0672,0.0676,0.0671,0.0652,0.0627,0.0575,0.053,0.0511,0.0486,0.0443,0.0413,0.039,0.0365,0.0372,0.0298,0.0286,0.0409,0.0408,0.0407,0.0406,0,0,0.0657,0.0684,0.0689,0.0701,0.0703,0.0707,0.0719,0.0712,0.0714,0.0695,0.0692,0.0635,0.0604,0.0571,0.0524,0.0472,0.0414,0.0435,0.043,0.0378,0.0261,0.0211,0.0193,0.0384,0.0383,0.0381,0.0219,0,0.0686,0.0728,0.0733,0.0763,0.0775,0.0764,0.0781,0.0773,0.0753,0.0746,0.069,0.0669,0.0626,0.0612,0.0551,0.045,0.0385,0.046,0.0253,0.0247,0.0209,0.0178,0.0376,0.0209,0.0206,0.0204,0.0203,0,0.0717,0.0742,0.0781,0.0807,0.0814,0.0838,0.0844,0.0855,0.0829,0.0818,0.0774,0.0727,0.066,0.0628,0.0448,0.0499,0.039,0.0306,0.0297,0.0215,0.0174,0.0197,0.018,0.0181,0.0183,0.0185,0.0186,0,0.0729,0.077,0.0805,0.0816,0.0843,0.0874,0.0897,0.0884,0.0896,0.087,0.0849,0.0764,0.0724,0.0581,0.0412,0.0431,0.0202,0.0199,0.0041,0.0036,0.0097,0.01,0.0059,0.0059,0.0059,0.006,0.006,0,0.0744,0.0771,0.0827,0.0847,0.0906,0.0918,0.0964,0.0968,0.0971,0.0974,0.0895,0.0852,0.0712,0.0565,0.0413,0.0181,0.0189,0.0036,-0.0014,0.0134,0.0143,0.0087,0.0093,0.0054,0.0055,0.0056,0.0057,0,0.0735,0.0769,0.0817,0.0881,0.0914,0.0962,0.104,0.1061,0.1047,0.1044,0.1044,0.0924,0.073,0.0538,0.0304,0.0175,-0.0034,-0.0123,0.0041,0.0005,-0.0151,-0.014,-0.0304,-0.0307,-0.031,-0.0312,-0.0314,0,0.0729,0.0755,0.0852,0.0902,0.0943,0.1023,0.1078,0.1115,0.1135,0.1067,0.1065,0.0894,0.0783,0.0402,0.0212,-0.0104,-0.0146,-0.0249,-0.0188,-0.016,-0.0191,-0.0175,-0.0161,-0.0319,-0.0319,-0.032,-0.0321,0,0.0719,0.0764,0.0808,0.0919,0.1001,0.1076,0.1162,0.1181,0.1198,0.1179,0.1061,0.0868,0.0635,0.0387,0.0131,-0.009,-0.0171,-0.0278,-0.0273,-0.0217,-0.0179,-0.0204,-0.0187,-0.033,-0.0329,-0.0328,-0.0327,0,0.0719,0.0754,0.0833,0.0921,0.1013,0.1091,0.1147,0.117,0.1189,0.113,0.1093,0.0838,0.0734,0.0387,0.015,-0.0072,-0.0116,-0.0162,-0.0164,-0.0156,-0.0061,0.0012,-0.0136,0,0,0,0,0,0.071,0.0752,0.0834,0.0931,0.1013,0.1082,0.1171,0.1215,0.1234,0.1159,0.1132,0.0912,0.0549,0.0396,0.0163,0.0092,-0.0159,-0.0189,-0.0213,-0.0383,-0.0372,-0.0289,0,0,0,0,0,0,0.0708,0.0778,0.0821,0.0904,0.0972,0.1077,0.1137,0.1169,0.1133,0.1119,0.0933,0.0853,0.0507,0.068,0.0156,0.0088,0.004,-0.0348,-0.0353,-0.0389,-0.0379,-0.037,-0.0281,0,0,0,0,0]}]]